Location: Dumbr?vi?a
(45.8833°N, 22.7000°E)
Time: 14:20:12
(UTC+00:00)

Cosmos 1602 - Pass Details

Date: 03 March 2021
Orbit: 512 x 534 km, 82.5° (Epoch: 11 April)

Event Time Altitude Azimuth Distance (km) Brightness Sun altitude
Rises 17:03:21 0° 184° (S) 2,648 7.4 -8.6°
Reaches altitude 10° 17:05:28 10° 183° (S) 1,768 6.5 -8.9°
Maximum altitude 17:09:21 79° 97° (E) 546 3.7 -9.6°
Drops below altitude 10° 17:13:18 10° 11° (N) 1,794 6.3 -10.3°
Sets 17:15:27 0° 10° (N) 2,692 7.3 -10.7°
